Weather observations for the past three days for
New Castle Municipal Airport
Imperial (Metric)
Date Time (edt) Wind (mph) Vis. (mi.) Weather Sky Cond. Temperature (ºF) Relative Humidity Wind Chill (°F) Heat Index (°F) Pressure Precipitation (in)
Air Dwpt 6 hour altimeter (in) sea level (mb) 1 hr 3 hr 6 hr
Max. Min.
17 09:56 Calm 10.00 Overcast OVC015 75 72 90% 74 29.9 1013.2
17 08:56 Vrbl 3 10.00 Overcast OVC015 73.9 72 94% 29.91 1013.3
17 07:56 Calm 10.00 Overcast OVC017 73 72 73.9 70 96% 29.91 1013.2
17 06:56 S 3 10.00 Partly Cloudy FEW017 SCT024 73 72 96% 29.9 1012.7
17 05:56 SW 3 10.00 Partly Cloudy SCT032 72 72 100% 29.88 1012.1
17 04:56 Calm 10.00 Mostly Cloudy BKN017 73 71.1 94% 29.87 1011.9
17 03:56 SW 3 10.00 Overcast SCT036 OVC047 73.9 70 88% 29.87 1011.7
17 02:56 Calm 10.00 Overcast OVC060 73 68 84% 29.86 1011.7
17 01:56 S 3 10.00 A Few Clouds FEW090 71.1 68 84 70 90% 29.86 1011.8
17 00:56 Calm 10.00 Fair CLR 72 68 87% 29.86 1011.7
16 23:56 Calm 10.00 Fair CLR 72 69.1 91% 29.87 1011.9
16 22:56 Calm 10.00 Fair CLR 75 66.9 76% 76 29.87 1011.7
16 21:56 Calm 10.00 Fair CLR 73.9 66.9 79% 29.87 1011.9
16 20:56 SW 5 10.00 Fair CLR 80.1 66 62% 82 29.87 1011.8
16 19:56 SW 6 10.00 Fair CLR 84 66 87.1 82.9 55% 86 29.86 1011.5
16 18:56 SW 5 10.00 Fair CLR 84.9 66.9 55% 88 29.86 1011.3
16 17:56 SW 5 10.00 A Few Clouds FEW050 87.1 66 50% 89 29.86 1011.4
16 16:56 Vrbl 5 10.00 Partly Cloudy SCT055 87.1 66 50% 89 29.86 1011.5
16 15:56 W 9 G 16 10.00 Partly Cloudy SCT048 SCT060 87.1 66.9 51% 90 29.87 1011.9
16 14:56 SW 10 10.00 Partly Cloudy SCT048 84.9 66 53% 87 29.88 1012.1
16 13:56 W 12 10.00 Fair CLR 82.9 64.9 82.9 73.9 55% 85 29.87 1011.9
16 12:56 W 10 G 22 10.00 Mostly Cloudy BKN039 82 64.9 56% 84 29.89 1012.6
16 11:56 SW 13 G 24 10.00 Mostly Cloudy BKN039 81 64.9 58% 83 29.88 1012.4
16 10:56 W 20 G 26 10.00 Partly Cloudy SCT043 82 64.9 56% 84 29.85 1011.2
16 09:56 SW 13 G 18 10.00 A Few Clouds FEW036 81 66.9 62% 83 29.82 1010.2
16 08:56 SW 12 10.00 Fair CLR 78.1 70 76% 80 29.81 1009.9
16 07:56 Vrbl 5 10.00 Fair CLR 73.9 69.1 73.9 71.1 85% 29.8 1009.4
16 06:56 Vrbl 5 10.00 Fair CLR 73 66.9 81% 29.77 1008.4
16 05:56 Vrbl 5 10.00 Fair CLR 72 66 82% 29.82 1010.2
16 04:56 Calm 10.00 Fair CLR 72 66.9 84% 29.82 1010.3
16 03:56 Calm 10.00 Fair CLR 73 68 84% 29.81 1010.0
16 02:56 Calm 10.00 Mostly Cloudy SCT040 BKN049 73 69.1 87% 29.85 1011.1
16 01:56 Calm 10.00 Partly Cloudy SCT039 73.9 70 82.9 73.9 88% 29.87 1011.8
16 00:56 S 3 10.00 Mostly Cloudy BKN060 75 71.1 88% 75 29.86 1011.7
15 23:56 Calm 10.00 Mostly Cloudy BKN055 75 72 90% 74 29.86 1011.6
15 22:56 Calm 10.00 Mostly Cloudy BKN055 75 73 94% 73 29.87 1011.8
15 21:56 Calm 10.00 Overcast OVC055 75 73 94% 73 29.86 1011.8
15 20:56 Calm 10.00 Mostly Cloudy BKN055 77 72 85% 78 29.87 1012.0
15 19:56 SW 5 10.00 Partly Cloudy SCT050 82.9 68 88 82.9 61% 86 29.88 1012.2
15 18:56 W 9 10.00 Fair CLR 86 66 51% 88 29.86 1011.7
15 17:56 W 10 G 22 10.00 A Few Clouds FEW055 87.1 64.9 48% 89 29.87 1011.8
15 16:56 SW 14 G 22 10.00 Mostly Cloudy BKN048 BKN055 87.1 68 53% 91 29.86 1011.7
15 15:56 SW 14 G 26 10.00 Mostly Cloudy BKN050 86 68 55% 89 29.87 1012.0
15 14:56 SW 10 G 17 10.00 Mostly Cloudy BKN048 BKN060 86 68 55% 89 29.88 1012.2
15 13:56 SW 14 G 22 10.00 A Few Clouds FEW047 87.1 68 87.1 71.1 53% 91 29.89 1012.7
15 12:56 Vrbl 6 G 17 10.00 A Few Clouds FEW041 84.9 71.1 63% 90 29.91 1013.4
15 11:56 Vrbl 5 10.00 Fair CLR 82.9 73 72% 89 29.93 1014.0
15 10:56 Vrbl 5 10.00 Fair CLR 82 72 72% 87 29.94 1014.1
15 09:56 Vrbl 6 10.00 A Few Clouds FEW034 78.1 71.1 79% 80 29.96 1015.2
15 08:56 Vrbl 5 10.00 Fair CLR 75 69.1 82% 75 29.98 1015.7
15 07:56 Vrbl 3 10.00 A Few Clouds FEW036 71.1 68 71.1 68 90% 29.98 1015.7
15 06:56 Vrbl 5 10.00 Mostly Cloudy BKN100 70 68 93% 29.97 1015.6
15 05:56 Calm 10.00 Mostly Cloudy BKN025 BKN095 69.1 68 96% 29.98 1015.9
15 04:56 Calm 10.00 Mostly Cloudy BKN023 BKN032 70 68 93% 29.97 1015.5
15 03:56 Vrbl 3 10.00 A Few Clouds FEW027 69.1 68 96% 29.97 1015.6
15 02:56 Calm 10.00 Mostly Cloudy BKN100 70 69.1 97% 29.98 1015.9
15 01:56 Vrbl 3 10.00 Fair CLR 71.1 68 79 68 90% 29.98 1015.8
15 00:56 Calm 10.00 Fair CLR 68 68 100% 29.98 1015.8
14 23:56 SW 3 10.00 A Few Clouds FEW100 71.1 69.1 94% 29.98 1015.7
14 22:56 SW 5 10.00 Fair CLR 75 70 84% 75 29.98 1015.7
14 21:56 SW 3 10.00 Partly Cloudy FEW060 SCT080 73.9 73 97% 29.98 1015.7
14 20:56 Calm 10.00 Fair CLR 75 70 84% 75 29.96 1015.3
14 19:56 Calm 10.00 Partly Cloudy SCT095 79 73.9 87.1 79 85% 83 29.98 1015.9
14 18:56 Calm 10.00 Fair CLR 84 69.1 61% 88 29.99 1016.1
14 17:56 SW 3 10.00 Fair CLR 82.9 70 65% 87 29.98 1016.0
14 16:56 SW 3 10.00 A Few Clouds FEW120 84 69.1 61% 88 30 1016.7
14 15:56 Calm 10.00 Mostly Cloudy BKN110 82.9 68 61% 86 30.02 1017.3
14 14:56 W 7 10.00 Light Rain FEW033 OVC110 82.9 64.9 55% 85 30.04 1017.7
14 13:56 SW 10 G 20 10.00 A Few Clouds FEW055 87.1 64.9 88 66 48% 89 30.05 1018.2
14 12:56 SW 8 10.00 A Few Clouds FEW048 86 66 51% 88 30.08 1019.1
14 11:56 SW 8 10.00 Partly Cloudy SCT048 86 66.9 53% 89 30.1 1019.8
14 10:56 W 8 10.00 Fair CLR 82.9 66.9 59% 86 30.11 1020.2
Date Time (edt) Wind (mph) Vis. (mi.) Weather Sky Cond. Air Dwpt Max. Min. Relative Humidity Wind Chill (°F) Heat Index (°F) altimeter (in) sea level (mb) 1 hr 3 hr 6 hr
6 hour
Temperature (ºF) Pressure Precipitation (in)